Regional Weather Roundup
Issued by NWS Green Bay, WI

Home | Current Version | Previous Version | Text Only | Print | Product List | Glossary Off
Versions: 1 2 3 4 5 6 7 8 9 10 11 12 13 14 15 16 17 18 19 20 21 22 23 24 25 26 27 28 29 30 31 32 33 34 35 36 37 38 39 40 41 42 43 44 45 46 47 48 49 50

000
ASUS43 KGRB 280200
RWRGRB

NORTH-CENTRAL AND NORTHEAST WISCONSIN REGIONAL WEATHER ROUNDUP
NATIONAL WEATHER SERVICE GREEN BAY WI
900 PM CDT SUN MAY 27 2018

WIZ005-009-010>012-018-019-280300-
NORTH CENTRAL WISCONSIN

CITY           SKY/WX    TMP DP  RH WIND       PRES   REMARKS
IRONWOOD       FAIR      70  63  78 CALM      29.88R
MANITOWISH WTR NOT AVBL
ARBOR VITAE    NOT AVBL
EAGLE RIVER    NOT AVBL
LAND O LAKES   NOT AVBL
RHINELANDER    FAIR      73  59  61 CALM      29.92R
PHILLIPS       NOT AVBL
ANTIGO         NOT AVBL
TOMAHAWK       NOT AVBL
MERRILL        NOT AVBL
$$

WIZ013-073-280300-
NORTHEAST WISCONSIN

CITY           SKY/WX    TMP DP  RH WIND       PRES   REMARKS
IRON MOUNTAIN  FAIR      76  62  62 SE6       29.88R
MARINETTE      FAIR      65  60  84 E5        29.89R
$$

WIZ017-030-035>037-045-280300-
CENTRAL WISCONSIN

CITY           SKY/WX    TMP DP  RH WIND       PRES   REMARKS
MEDFORD        NOT AVBL
WAUSAU         FAIR      79  59  50 CALM      29.87R
MOSINEE        NOT AVBL
MARSHFIELD     MOCLDY    78  61  55 CALM      29.88R
WISC RAPIDS    FAIR      75  61  61 CALM      29.88R
STEVENS POINT  NOT AVBL
WAUPACA        NOT AVBL
SHAWANO        FAIR      77  65  68 CALM      29.87R
CLINTONVILLE   FAIR      78  60  53 CALM      29.87R
WAUTOMA        FAIR      73  66  78 CALM      29.87R
$$

WIZ038-039-048-051-280300-
FOX VALLEY

CITY           SKY/WX    TMP DP  RH WIND       PRES   REMARKS
NWS GREEN BAY  FAIR      75  64  68 CALM      29.86R
APPLETON       PTCLDY    82  54  36 CALM      29.86R
OSHKOSH        FAIR      79  61  53 CALM      29.86R
FOND DU LAC    FAIR      76  66  71 SE5       29.87R
$$

WIZ022-050-052-280300-
EAST CENTRAL WISCONSIN

CITY           SKY/WX    TMP DP  RH WIND       PRES   REMARKS
EPHRAIM        NOT AVBL
WASHINGTON ISL NOT AVBL
STURGEON BAY   FAIR      70  61  73 SE7       29.89R
MANITOWOC      NOT AVBL
SHEBOYGAN      FAIR      73  64  73 SE3       29.87R
$$

LMZ563-521-522-541>543-280300-
LAKESHORE

STATION/POSITION TIME  TEMP    WIND        PRES    VSBY  WAVE
                       AIR SEA DIR/SP/G                  HT/PER
                 (UTC) (F)     (DEG/KT/KT) (MB)    (MI)  (FT/S)
SHEBOYGAN LKSHOR 0100   58     160/ 12/ 12 1010.0F
KEWAUNEE LKSHORE 0130   57      30/  1/  1 1011.0R
NORTHPORT PIER   0140   66      CALM  /  4 1011.9R
N MID LAKE BUOY  0140   43 38  240/  6/  8 1011.8R
SISTER BAY LKSHO 0127   68     150/  7/ 10   N/A
MENOMINEE LKSHOR 0130   67     120/  3/  3 1011.3R
$$




USA.gov is the U.S. government's official web portal to all federal, state and local government web resources and services.